Orbital Elements at Epoch 2459000.5 (2020-May-31.0) TDB
Reference: JPL 12 (heliocentric ecliptic J2000)
Element | Value | Uncertainty (1-sigma) | Units |
e | .05492379036339919 | 6.9823e-08 | |
a | 2.719364416362813 | 2.5725e-08 | au |
q | 2.570006615236814 | 1.9813e-07 | au |
i | 5.953737296630534 | 7.7891e-06 | deg |
node | 23.04023374749906 | 4.7453e-05 | deg |
peri | 325.1396450662396 | 7.1774e-05 | deg |
M | 279.8632434951218 | 5.6161e-05 | deg |
tp | 2459365.110190236649 (2021-May-30.61019024) | 0.00025716 | TDB |
period | 1637.945859178907 4.48 | 2.3242e-05 6.363e-08 | d yr |
n | .219787484416894 | 3.1188e-09 | deg/d |
Q | 2.868722217488811 | 2.7138e-08 | au |
|
| | Orbit Determination Parameters
Additional Information
|